Time,TemperatureF,DewpointF,PressureIn,WindDirection,WindDirectionDegrees,WindSpeedMPH,WindSpeedGustMPH,Humidity,HourlyPrecipIn,Conditions,Clouds,dailyrainin,SoftwareType,DateUTC
2013-09-21 00:00:00,56.3,55.5,29.97,NW,309,0.0,0.0,97,0.00,,,0.00,Wunderground v.1.15,2013-09-21 04:00:00,
2013-09-21 00:05:00,56.3,55.5,29.97,NW,309,0.0,0.0,97,0.00,,,0.00,Wunderground v.1.15,2013-09-21 04:05:00,
2013-09-21 00:10:00,56.3,55.5,29.97,NW,309,0.0,0.0,97,0.00,,,0.00,Wunderground v.1.15,2013-09-21 04:10:00,
2013-09-21 00:15:00,56.2,55.4,29.97,NW,309,0.0,0.0,97,0.00,,,0.00,Wunderground v.1.15,2013-09-21 04:15:00,
2013-09-21 00:25:00,56.0,55.2,29.97,NW,309,0.0,0.0,97,0.00,,,0.00,Wunderground v.1.15,2013-09-21 04:25:00,
2013-09-21 00:30:00,55.9,55.1,29.97,NW,309,0.0,0.0,97,0.00,,,0.00,Wunderground v.1.15,2013-09-21 04:30:00,
2013-09-21 00:35:00,55.9,55.1,29.97,NW,309,0.0,0.0,97,0.00,,,0.00,Wunderground v.1.15,2013-09-21 04:35:00,
2013-09-21 00:40:00,55.7,54.9,29.97,NW,309,0.0,0.0,97,0.00,,,0.00,Wunderground v.1.15,2013-09-21 04:40:00,
2013-09-21 00:45:00,55.6,54.8,29.97,NW,309,0.0,0.0,97,0.00,,,0.00,Wunderground v.1.15,2013-09-21 04:45:00,
2013-09-21 00:55:00,55.3,54.2,29.97,NW,309,0.0,0.0,96,0.00,,,0.00,Wunderground v.1.15,2013-09-21 04:55:00,
2013-09-21 01:00:00,55.1,54.0,29.98,NW,309,0.0,0.0,96,0.00,,,0.00,Wunderground v.1.15,2013-09-21 05:00:00,
2013-09-21 01:09:00,55.0,53.9,29.98,NW,309,0.0,0.0,96,0.00,,,0.00,Wunderground v.1.15,2013-09-21 05:09:00,
2013-09-21 01:14:00,54.8,53.7,29.98,NW,309,0.0,0.0,96,0.00,,,0.00,Wunderground v.1.15,2013-09-21 05:14:00,
2013-09-21 01:19:00,54.7,53.6,29.98,NW,309,0.0,0.0,96,0.00,,,0.00,Wunderground v.1.15,2013-09-21 05:19:00,
2013-09-21 01:29:00,54.4,53.6,29.98,NW,309,0.0,0.0,97,0.00,,,0.00,Wunderground v.1.15,2013-09-21 05:29:00,
2013-09-21 01:34:00,54.2,53.4,29.98,NW,309,0.0,0.0,97,0.00,,,0.00,Wunderground v.1.15,2013-09-21 05:34:00,
2013-09-21 01:39:00,54.1,53.3,29.98,NW,309,0.0,0.0,97,0.00,,,0.00,Wunderground v.1.15,2013-09-21 05:39:00,
2013-09-21 01:45:00,54.1,53.3,29.97,NW,309,0.0,0.0,97,0.00,,,0.00,Wunderground v.1.15,2013-09-21 05:45:00,
2013-09-21 01:50:00,53.9,53.1,29.97,NW,309,0.0,0.0,97,0.00,,,0.00,Wunderground v.1.15,2013-09-21 05:50:00,
2013-09-21 01:55:00,53.9,53.1,29.97,NW,309,0.0,0.0,97,0.00,,,0.00,Wunderground v.1.15,2013-09-21 05:55:00,
2013-09-21 02:05:00,53.6,52.8,29.97,NW,309,0.0,0.0,97,0.00,,,0.00,Wunderground v.1.15,2013-09-21 06:05:00,
2013-09-21 02:10:00,53.5,52.7,29.97,NW,309,0.0,0.0,97,0.00,,,0.00,Wunderground v.1.15,2013-09-21 06:10:00,
2013-09-21 02:15:00,53.5,52.7,29.97,NW,309,0.0,0.0,97,0.00,,,0.00,Wunderground v.1.15,2013-09-21 06:15:00,
2013-09-21 02:20:00,53.3,52.5,29.97,NW,309,0.0,0.0,97,0.00,,,0.00,Wunderground v.1.15,2013-09-21 06:20:00,
2013-09-21 02:25:00,53.2,52.1,29.97,NW,309,0.0,0.0,96,0.00,,,0.00,Wunderground v.1.15,2013-09-21 06:25:00,
2013-09-21 02:35:00,52.9,51.8,29.96,NW,309,0.0,0.0,96,0.00,,,0.00,Wunderground v.1.15,2013-09-21 06:35:00,
2013-09-21 02:40:00,52.6,51.5,29.96,NW,309,0.0,0.0,96,0.00,,,0.00,Wunderground v.1.15,2013-09-21 06:40:00,
2013-09-21 02:45:00,52.5,51.1,29.96,NW,309,0.0,0.0,95,0.00,,,0.00,Wunderground v.1.15,2013-09-21 06:45:00,
2013-09-21 02:50:00,52.2,50.8,29.96,NW,309,0.0,0.0,95,0.00,,,0.00,Wunderground v.1.15,2013-09-21 06:50:00,
2013-09-21 02:55:00,52.0,50.6,29.96,NW,309,0.0,0.0,95,0.00,,,0.00,Wunderground v.1.15,2013-09-21 06:55:00,
2013-09-21 03:00:00,51.7,50.3,29.96,NW,309,0.0,0.0,95,0.00,,,0.00,Wunderground v.1.15,2013-09-21 07:00:00,
2013-09-21 03:10:00,51.3,49.9,29.96,NW,309,0.0,0.0,95,0.00,,,0.00,Wunderground v.1.15,2013-09-21 07:10:00,
2013-09-21 03:15:00,51.1,49.7,29.96,NW,309,0.0,0.0,95,0.00,,,0.00,Wunderground v.1.15,2013-09-21 07:15:00,
2013-09-21 03:20:00,51.1,49.7,29.96,NW,309,0.0,0.0,95,0.00,,,0.00,Wunderground v.1.15,2013-09-21 07:20:00,
2013-09-21 03:25:00,50.8,49.4,29.96,NW,309,0.0,0.0,95,0.00,,,0.00,Wunderground v.1.15,2013-09-21 07:25:00,
2013-09-21 03:30:00,50.7,49.3,29.96,NW,309,0.0,0.0,95,0.00,,,0.00,Wunderground v.1.15,2013-09-21 07:30:00,
2013-09-21 03:40:00,50.5,49.4,29.96,NW,309,0.0,0.0,96,0.00,,,0.00,Wunderground v.1.15,2013-09-21 07:40:00,
2013-09-21 03:45:00,50.4,49.3,29.96,NW,309,0.0,0.0,96,0.00,,,0.00,Wunderground v.1.15,2013-09-21 07:45:00,
2013-09-21 03:50:00,50.5,49.7,29.96,NW,309,0.0,0.0,97,0.00,,,0.00,Wunderground v.1.15,2013-09-21 07:50:00,
2013-09-21 03:55:00,50.5,49.7,29.96,NW,309,0.0,0.0,97,0.00,,,0.00,Wunderground v.1.15,2013-09-21 07:55:00,
2013-09-21 04:04:00,50.5,49.7,29.96,NW,309,0.0,0.0,97,0.00,,,0.00,Wunderground v.1.15,2013-09-21 08:04:00,
2013-09-21 04:10:00,50.5,49.7,29.96,NW,309,0.0,0.0,97,0.00,,,0.00,Wunderground v.1.15,2013-09-21 08:10:00,
2013-09-21 04:15:00,50.5,50.0,29.96,NW,309,0.0,0.0,98,0.00,,,0.00,Wunderground v.1.15,2013-09-21 08:15:00,
2013-09-21 04:20:00,50.7,50.2,29.96,NW,309,0.0,0.0,98,0.00,,,0.00,Wunderground v.1.15,2013-09-21 08:20:00,
2013-09-21 04:29:00,51.1,50.6,29.96,NW,309,0.0,0.0,98,0.00,,,0.00,Wunderground v.1.15,2013-09-21 08:29:00,
2013-09-21 04:34:00,51.1,50.6,29.96,NW,309,0.0,0.0,98,0.00,,,0.00,Wunderground v.1.15,2013-09-21 08:34:00,
2013-09-21 04:39:00,51.3,50.8,29.96,NW,309,0.0,0.0,98,0.00,,,0.00,Wunderground v.1.15,2013-09-21 08:39:00,
2013-09-21 04:49:00,51.6,51.3,29.96,NW,309,0.0,0.0,99,0.00,,,0.00,Wunderground v.1.15,2013-09-21 08:49:00,
2013-09-21 04:54:00,51.7,51.4,29.96,NW,309,0.0,0.0,99,0.00,,,0.00,Wunderground v.1.15,2013-09-21 08:54:00,
2013-09-21 05:00:00,51.9,51.6,29.95,NW,309,0.0,0.0,99,0.00,,,0.00,Wunderground v.1.15,2013-09-21 09:00:00,
2013-09-21 05:05:00,51.9,51.6,29.95,NW,309,0.0,0.0,99,0.00,,,0.00,Wunderground v.1.15,2013-09-21 09:05:00,
2013-09-21 05:10:00,52.0,51.7,29.95,NW,309,0.0,0.0,99,0.00,,,0.00,Wunderground v.1.15,2013-09-21 09:10:00,
2013-09-21 05:20:00,52.5,52.2,29.94,NW,309,0.0,0.0,99,0.00,,,0.00,Wunderground v.1.15,2013-09-21 09:20:00,
2013-09-21 05:25:00,52.6,52.6,29.94,NW,309,0.0,0.0,100,0.00,,,0.00,Wunderground v.1.15,2013-09-21 09:25:00,
2013-09-21 05:30:00,52.9,52.9,29.94,West,264,0.0,0.0,100,0.00,,,0.00,Wunderground v.1.15,2013-09-21 09:30:00,
2013-09-21 05:35:00,53.1,53.1,29.94,NNW,337,0.0,0.0,100,0.00,,,0.00,Wunderground v.1.15,2013-09-21 09:35:00,
2013-09-21 05:40:00,53.2,53.2,29.94,NNW,337,0.0,0.0,100,0.00,,,0.00,Wunderground v.1.15,2013-09-21 09:40:00,
2013-09-21 05:45:00,53.3,53.3,29.94,NNW,337,0.0,0.0,100,0.00,,,0.00,Wunderground v.1.15,2013-09-21 09:45:00,
2013-09-21 05:55:00,53.3,53.3,29.94,NNW,337,0.0,0.0,100,0.00,,,0.00,Wunderground v.1.15,2013-09-21 09:55:00,
2013-09-21 06:00:00,53.2,53.2,29.93,NNW,337,0.0,0.0,100,0.00,,,0.00,Wunderground v.1.15,2013-09-21 10:00:00,
2013-09-21 06:05:00,53.2,53.2,29.93,NNW,337,0.0,0.0,100,0.00,,,0.00,Wunderground v.1.15,2013-09-21 10:05:00,
2013-09-21 06:10:00,53.2,53.2,29.93,West,272,0.0,0.0,100,0.00,,,0.00,Wunderground v.1.15,2013-09-21 10:10:00,
2013-09-21 06:15:00,53.2,53.2,29.94,West,272,0.0,0.0,100,0.00,,,0.00,Wunderground v.1.15,2013-09-21 10:15:00,
2013-09-21 06:25:00,53.2,53.2,29.94,West,272,0.0,0.0,100,0.00,,,0.00,Wunderground v.1.15,2013-09-21 10:25:00,
2013-09-21 06:30:00,53.3,53.3,29.94,West,272,0.0,0.0,100,0.00,,,0.00,Wunderground v.1.15,2013-09-21 10:30:00,
2013-09-21 06:35:00,53.5,53.5,29.94,West,272,0.0,0.0,100,0.00,,,0.00,Wunderground v.1.15,2013-09-21 10:35:00,
2013-09-21 06:40:00,53.8,53.8,29.94,West,272,0.0,0.0,100,0.00,,,0.00,Wunderground v.1.15,2013-09-21 10:40:00,
2013-09-21 06:45:00,53.9,53.9,29.94,West,272,0.0,0.0,100,0.00,,,0.00,Wunderground v.1.15,2013-09-21 10:45:00,
2013-09-21 06:50:00,54.1,54.1,29.94,SW,225,0.0,-999.0,100,0.00,,,0.00,Wunderground v.1.15,2013-09-21 10:50:00,
2013-09-21 06:55:00,54.4,54.4,29.94,SW,225,0.0,-999.0,100,0.00,,,0.00,Wunderground v.1.15,2013-09-21 10:55:00,
2013-09-21 07:00:00,54.5,54.5,29.94,SW,225,0.0,-999.0,100,0.00,,,0.00,Wunderground v.1.15,2013-09-21 11:00:00,
2013-09-21 07:05:00,54.7,54.7,29.94,SW,225,0.0,-999.0,100,0.00,,,0.00,Wunderground v.1.15,2013-09-21 11:05:00,
2013-09-21 07:10:00,54.8,54.8,29.94,SW,225,0.0,-999.0,100,0.00,,,0.00,Wunderground v.1.15,2013-09-21 11:10:00,
2013-09-21 07:15:00,55.0,55.0,29.94,SW,225,0.0,-999.0,100,0.00,,,0.00,Wunderground v.1.15,2013-09-21 11:15:00,
2013-09-21 07:20:00,55.1,55.1,29.94,N/A,-737280,0.0,-999.0,100,0.00,,,0.00,Wunderground v.1.15,2013-09-21 11:20:00,
2013-09-21 07:25:00,55.3,55.3,29.94,WSW,248,0.0,-999.0,100,0.00,,,0.00,Wunderground v.1.15,2013-09-21 11:25:00,
2013-09-21 07:30:00,55.4,55.4,29.94,SW,225,0.0,-999.0,100,0.00,,,0.00,Wunderground v.1.15,2013-09-21 11:30:00,
2013-09-21 07:35:00,55.6,55.6,29.94,West,270,0.0,-999.0,100,0.00,,,0.00,Wunderground v.1.15,2013-09-21 11:35:00,
2013-09-21 07:40:00,55.7,55.7,29.94,WSW,248,0.0,-999.0,100,0.00,,,0.00,Wunderground v.1.15,2013-09-21 11:40:00,
2013-09-21 07:45:00,56.0,56.0,29.94,N/A,-737280,0.0,-999.0,100,0.00,,,0.00,Wunderground v.1.15,2013-09-21 11:45:00,
2013-09-21 07:50:00,56.0,56.0,29.94,N/A,-737280,0.0,-999.0,100,0.00,,,0.00,Wunderground v.1.15,2013-09-21 11:50:00,
2013-09-21 07:55:00,56.2,56.2,29.94,N/A,-737280,0.0,-999.0,100,0.00,,,0.00,Wunderground v.1.15,2013-09-21 11:55:00,
2013-09-21 08:00:00,56.3,56.3,29.94,N/A,-737280,0.0,-999.0,100,0.00,,,0.00,Wunderground v.1.15,2013-09-21 12:00:00,
2013-09-21 08:05:00,56.3,56.3,29.94,N/A,-737280,0.0,-999.0,100,0.00,,,0.00,Wunderground v.1.15,2013-09-21 12:05:00,
2013-09-21 08:10:00,56.5,56.5,29.94,WSW,248,0.0,-999.0,100,0.00,,,0.00,Wunderground v.1.15,2013-09-21 12:10:00,
2013-09-21 08:15:00,56.5,56.5,29.95,WSW,248,0.0,-999.0,100,0.00,,,0.00,Wunderground v.1.15,2013-09-21 12:15:00,
2013-09-21 08:20:00,56.6,56.6,29.95,SE,135,0.0,-999.0,100,0.00,,,0.00,Wunderground v.1.15,2013-09-21 12:20:00,
2013-09-21 08:25:00,56.7,56.7,29.95,SW,225,0.0,-999.0,100,0.00,,,0.00,Wunderground v.1.15,2013-09-21 12:25:00,
2013-09-21 08:30:00,56.9,56.9,29.95,N/A,-737280,0.0,-999.0,100,0.00,,,0.00,Wunderground v.1.15,2013-09-21 12:30:00,
2013-09-21 08:35:00,56.9,56.9,29.95,N/A,-737280,0.0,-999.0,100,0.00,,,0.00,Wunderground v.1.15,2013-09-21 12:35:00,
2013-09-21 08:40:00,57.0,57.0,29.95,SW,225,0.0,-999.0,100,0.00,,,0.00,Wunderground v.1.15,2013-09-21 12:40:00,
2013-09-21 08:45:00,57.3,57.3,29.94,SW,225,0.0,-999.0,100,0.00,,,0.00,Wunderground v.1.15,2013-09-21 12:45:00,
2013-09-21 08:50:00,57.5,57.5,29.94,SW,225,0.0,-999.0,100,0.00,,,0.00,Wunderground v.1.15,2013-09-21 12:50:00,
2013-09-21 08:55:00,57.6,57.6,29.94,SW,225,0.0,-999.0,100,0.00,,,0.00,Wunderground v.1.15,2013-09-21 12:55:00,
2013-09-21 09:00:00,57.5,57.5,29.94,SW,225,1.0,-999.0,100,0.00,,,0.00,Wunderground v.1.15,2013-09-21 13:00:00,
2013-09-21 09:05:00,57.5,57.5,29.94,East,90,1.0,-999.0,100,0.00,,,0.00,Wunderground v.1.15,2013-09-21 13:05:00,
2013-09-21 09:10:00,57.5,57.5,29.94,SW,225,0.0,-999.0,100,0.00,,,0.00,Wunderground v.1.15,2013-09-21 13:10:00,
2013-09-21 09:15:00,57.6,57.6,29.94,SW,225,0.0,-999.0,100,0.00,,,0.00,Wunderground v.1.15,2013-09-21 13:15:00,
2013-09-21 09:20:00,57.8,57.8,29.94,SW,225,0.0,-999.0,100,0.00,,,0.00,Wunderground v.1.15,2013-09-21 13:20:00,
2013-09-21 09:25:00,58.3,58.3,29.94,SSE,158,0.0,-999.0,100,0.00,,,0.00,Wunderground v.1.15,2013-09-21 13:25:00,
2013-09-21 09:30:00,59.0,58.7,29.93,SW,225,0.0,-999.0,99,0.00,,,0.00,Wunderground v.1.15,2013-09-21 13:30:00,
2013-09-21 09:35:00,59.9,59.3,29.93,SW,225,0.0,-999.0,98,0.00,,,0.00,Wunderground v.1.15,2013-09-21 13:35:00,
2013-09-21 09:40:00,60.9,59.8,29.93,SW,225,0.0,-999.0,96,0.00,,,0.00,Wunderground v.1.15,2013-09-21 13:40:00,
2013-09-21 09:45:00,61.0,59.3,29.93,SE,135,0.0,-999.0,94,0.00,,,0.00,Wunderground v.1.15,2013-09-21 13:45:00,
2013-09-21 09:50:00,61.5,59.5,29.93,SSW,203,0.0,-999.0,93,0.00,,,0.00,Wunderground v.1.15,2013-09-21 13:50:00,
2013-09-21 09:55:00,61.3,59.3,29.93,N/A,-737280,0.0,-999.0,93,0.00,,,0.00,Wunderground v.1.15,2013-09-21 13:55:00,
2013-09-21 10:00:00,61.6,59.6,29.93,SW,225,0.0,-999.0,93,0.00,,,0.00,Wunderground v.1.15,2013-09-21 14:00:00,
2013-09-21 10:05:00,61.8,59.5,29.93,SW,225,0.0,-999.0,92,0.00,,,0.00,Wunderground v.1.15,2013-09-21 14:05:00,
2013-09-21 10:10:00,62.0,59.3,29.93,WSW,248,0.0,-999.0,91,0.00,,,0.00,Wunderground v.1.15,2013-09-21 14:10:00,
2013-09-21 10:15:00,62.0,59.0,29.92,SW,225,1.0,-999.0,90,0.00,,,0.00,Wunderground v.1.15,2013-09-21 14:15:00,
2013-09-21 10:20:00,62.0,59.0,29.92,WSW,248,0.0,-999.0,90,0.00,,,0.00,Wunderground v.1.15,2013-09-21 14:20:00,
2013-09-21 10:25:00,62.0,59.0,29.92,SW,225,1.0,-999.0,90,0.00,,,0.00,Wunderground v.1.15,2013-09-21 14:25:00,
2013-09-21 10:30:00,62.0,59.3,29.91,SW,225,0.0,-999.0,91,0.00,,,0.00,Wunderground v.1.15,2013-09-21 14:30:00,
2013-09-21 10:35:00,62.3,59.6,29.91,SW,225,0.0,-999.0,91,0.00,,,0.00,Wunderground v.1.15,2013-09-21 14:35:00,
2013-09-21 10:40:00,62.4,59.1,29.91,SW,225,1.0,-999.0,89,0.00,,,0.00,Wunderground v.1.15,2013-09-21 14:40:00,
2013-09-21 10:45:00,62.4,59.1,29.91,SW,225,1.0,-999.0,89,0.00,,,0.00,Wunderground v.1.15,2013-09-21 14:45:00,
2013-09-21 10:50:00,62.9,59.9,29.91,SW,225,0.0,-999.0,90,0.00,,,0.00,Wunderground v.1.15,2013-09-21 14:50:00,
2013-09-21 10:55:00,64.2,59.9,29.91,SW,225,1.0,-999.0,86,0.00,,,0.00,Wunderground v.1.15,2013-09-21 14:55:00,
2013-09-21 11:00:00,65.2,61.2,29.90,SW,225,0.0,-999.0,87,0.00,,,0.00,Wunderground v.1.15,2013-09-21 15:00:00,
2013-09-21 11:05:00,65.2,60.2,29.90,SW,225,1.0,-999.0,84,0.00,,,0.00,Wunderground v.1.15,2013-09-21 15:05:00,
2013-09-21 11:10:00,65.0,60.0,29.90,WSW,248,1.0,-999.0,84,0.00,,,0.00,Wunderground v.1.15,2013-09-21 15:10:00,
2013-09-21 11:15:00,65.0,60.0,29.90,WSW,248,0.0,-999.0,84,0.00,,,0.00,Wunderground v.1.15,2013-09-21 15:15:00,
2013-09-21 11:20:00,65.2,59.6,29.90,SW,225,2.0,-999.0,82,0.00,,,0.00,Wunderground v.1.15,2013-09-21 15:20:00,
2013-09-21 11:25:00,65.6,60.0,29.90,SW,225,1.0,-999.0,82,0.00,,,0.00,Wunderground v.1.15,2013-09-21 15:25:00,
2013-09-21 11:30:00,66.3,59.9,29.89,SW,225,1.0,-999.0,80,0.00,,,0.00,Wunderground v.1.15,2013-09-21 15:30:00,
2013-09-21 11:35:00,66.3,59.6,29.89,SW,225,1.0,-999.0,79,0.00,,,0.00,Wunderground v.1.15,2013-09-21 15:35:00,
2013-09-21 11:40:00,66.9,59.8,29.89,SW,225,0.0,-999.0,78,0.00,,,0.00,Wunderground v.1.15,2013-09-21 15:40:00,
2013-09-21 11:45:00,67.9,60.4,29.88,SW,225,1.0,-999.0,77,0.00,,,0.00,Wunderground v.1.15,2013-09-21 15:45:00,
2013-09-21 11:50:00,69.3,59.9,29.88,SW,225,2.0,-999.0,72,0.00,,,0.00,Wunderground v.1.15,2013-09-21 15:50:00,
2013-09-21 11:55:00,69.4,61.5,29.88,SW,225,1.0,-999.0,76,0.00,,,0.00,Wunderground v.1.15,2013-09-21 15:55:00,
2013-09-21 12:00:00,69.6,61.3,29.87,WSW,248,0.0,-999.0,75,0.00,,,0.00,Wunderground v.1.15,2013-09-21 16:00:00,
2013-09-21 12:09:00,69.8,60.8,29.87,SW,234,1.0,1.0,73,0.00,,,0.00,Wunderground v.1.15,2013-09-21 16:09:00,
2013-09-21 12:15:00,70.9,62.2,29.86,SW,229,1.0,1.0,74,0.00,,,0.00,Wunderground v.1.15,2013-09-21 16:15:00,
2013-09-21 12:20:00,71.3,62.2,29.86,West,270,0.0,0.0,73,0.00,,,0.00,Wunderground v.1.15,2013-09-21 16:20:00,
2013-09-21 12:25:00,71.5,62.0,29.86,WSW,239,1.0,1.0,72,0.00,,,0.00,Wunderground v.1.15,2013-09-21 16:25:00,
2013-09-21 12:30:00,71.8,61.9,29.86,West,265,1.0,6.0,71,0.00,,,0.00,Wunderground v.1.15,2013-09-21 16:30:00,
2013-09-21 12:40:00,71.8,63.1,29.86,West,265,0.0,0.0,74,0.00,,,0.00,Wunderground v.1.15,2013-09-21 16:40:00,
2013-09-21 12:45:00,72.0,62.1,29.85,SW,230,0.0,0.0,71,0.00,,,0.00,Wunderground v.1.15,2013-09-21 16:45:00,
2013-09-21 12:50:00,71.3,62.6,29.85,WSW,254,0.0,0.0,74,0.00,,,0.00,Wunderground v.1.15,2013-09-21 16:50:00,
2013-09-21 12:55:00,71.3,61.8,29.85,SW,234,0.0,0.0,72,0.00,,,0.00,Wunderground v.1.15,2013-09-21 16:55:00,
2013-09-21 13:00:00,71.8,62.7,29.85,SSW,205,0.0,0.0,73,0.00,,,0.00,Wunderground v.1.15,2013-09-21 17:00:00,
2013-09-21 13:10:00,72.1,63.0,29.85,NW,304,1.0,3.0,73,0.00,,,0.00,Wunderground v.1.15,2013-09-21 17:10:00,
2013-09-21 13:19:00,73.2,62.8,29.83,WSW,254,1.0,1.0,70,0.00,,,0.00,Wunderground v.1.15,2013-09-21 17:19:00,
2013-09-21 13:24:00,73.3,62.5,29.83,WSW,256,1.0,3.0,69,0.00,,,0.00,Wunderground v.1.15,2013-09-21 17:24:00,
2013-09-21 13:29:00,72.3,62.0,29.83,NNE,24,1.0,1.0,70,0.00,,,0.00,Wunderground v.1.15,2013-09-21 17:29:00,
2013-09-21 13:34:00,72.0,62.1,29.83,SW,219,1.0,3.0,71,0.00,,,0.00,Wunderground v.1.15,2013-09-21 17:34:00,
2013-09-21 13:39:00,72.0,62.5,29.83,ESE,114,1.0,1.0,72,0.00,,,0.00,Wunderground v.1.15,2013-09-21 17:39:00,
2013-09-21 13:49:00,72.8,62.4,29.82,SSE,151,1.0,1.0,70,0.00,,,0.00,Wunderground v.1.15,2013-09-21 17:49:00,
2013-09-21 13:54:00,73.2,63.2,29.82,WSW,240,1.0,2.0,71,0.00,,,0.00,Wunderground v.1.15,2013-09-21 17:54:00,
2013-09-21 13:59:00,73.3,63.3,29.82,WSW,254,1.0,3.0,71,0.00,,,0.00,Wunderground v.1.15,2013-09-21 17:59:00,
2013-09-21 14:05:00,73.0,61.8,29.82,SSW,212,1.0,3.0,68,0.00,,,0.00,Wunderground v.1.15,2013-09-21 18:05:00,
2013-09-21 14:10:00,72.7,62.8,29.82,WSW,250,1.0,3.0,71,0.00,,,0.00,Wunderground v.1.15,2013-09-21 18:10:00,
2013-09-21 14:20:00,72.7,63.1,29.82,WSW,241,0.0,3.0,72,0.00,,,0.00,Wunderground v.1.15,2013-09-21 18:20:00,
2013-09-21 14:25:00,72.5,63.0,29.82,SW,223,1.0,3.0,72,0.00,,,0.00,Wunderground v.1.15,2013-09-21 18:25:00,
2013-09-21 14:30:00,72.3,62.8,29.81,SSW,213,1.0,1.0,72,0.00,,,0.00,Wunderground v.1.15,2013-09-21 18:30:00,
2013-09-21 14:35:00,72.3,62.8,29.81,WSW,239,1.0,3.0,72,0.00,,,0.00,Wunderground v.1.15,2013-09-21 18:35:00,
2013-09-21 14:40:00,72.3,63.5,29.81,SW,222,0.0,3.0,74,0.00,,,0.00,Wunderground v.1.15,2013-09-21 18:40:00,
2013-09-21 14:45:00,72.5,63.0,29.80,SW,226,0.0,3.0,72,0.00,,,0.00,Wunderground v.1.15,2013-09-21 18:45:00,
2013-09-21 14:55:00,72.8,62.8,29.80,SW,233,1.0,3.0,71,0.00,,,0.00,Wunderground v.1.15,2013-09-21 18:55:00,
2013-09-21 15:00:00,72.7,62.8,29.80,NNW,343,1.0,1.0,71,0.00,,,0.00,Wunderground v.1.15,2013-09-21 19:00:00,
2013-09-21 15:05:00,72.7,63.1,29.80,SW,232,1.0,3.0,72,0.00,,,0.00,Wunderground v.1.15,2013-09-21 19:05:00,
2013-09-21 15:10:00,72.7,63.1,29.80,SW,223,0.0,3.0,72,0.00,,,0.00,Wunderground v.1.15,2013-09-21 19:10:00,
2013-09-21 15:19:00,73.0,62.6,29.79,SE,131,1.0,1.0,70,0.00,,,0.00,Wunderground v.1.15,2013-09-21 19:19:00,
2013-09-21 15:25:00,73.0,62.6,29.79,SSW,210,1.0,5.0,70,0.00,,,0.00,Wunderground v.1.15,2013-09-21 19:25:00,
2013-09-21 15:34:00,73.2,63.2,29.78,SE,136,1.0,3.0,71,0.00,,,0.00,Wunderground v.1.15,2013-09-21 19:34:00,
2013-09-21 15:39:00,73.2,63.2,29.78,WSW,253,1.0,1.0,71,0.00,,,0.00,Wunderground v.1.15,2013-09-21 19:39:00,
2013-09-21 15:44:00,73.2,63.2,29.78,West,267,1.0,3.0,71,0.00,,,0.00,Wunderground v.1.15,2013-09-21 19:44:00,
2013-09-21 15:49:00,73.2,63.2,29.78,West,264,1.0,1.0,71,0.00,,,0.00,Wunderground v.1.15,2013-09-21 19:49:00,
2013-09-21 15:59:00,73.2,63.6,29.77,WSW,248,1.0,1.0,72,0.00,,,0.00,Wunderground v.1.15,2013-09-21 19:59:00,
2013-09-21 16:04:00,73.2,63.6,29.77,SW,233,1.0,3.0,72,0.00,,,0.00,Wunderground v.1.15,2013-09-21 20:04:00,
2013-09-21 16:09:00,73.0,63.4,29.77,SW,224,1.0,3.0,72,0.00,,,0.00,Wunderground v.1.15,2013-09-21 20:09:00,
2013-09-21 16:14:00,72.8,63.2,29.77,East,90,2.0,3.0,72,0.00,,,0.00,Wunderground v.1.15,2013-09-21 20:14:00,
2013-09-21 16:20:00,72.7,63.1,29.77,NW,304,1.0,1.0,72,0.00,,,0.00,Wunderground v.1.15,2013-09-21 20:20:00,
2013-09-21 16:25:00,72.7,63.1,29.77,WSW,251,1.0,3.0,72,0.00,,,0.00,Wunderground v.1.15,2013-09-21 20:25:00,
2013-09-21 16:35:00,72.7,62.8,29.77,WSW,258,1.0,2.0,71,0.00,,,0.00,Wunderground v.1.15,2013-09-21 20:35:00,
2013-09-21 16:40:00,72.7,62.8,29.77,SW,236,1.0,1.0,71,0.00,,,0.00,Wunderground v.1.15,2013-09-21 20:40:00,
2013-09-21 16:45:00,72.7,62.3,29.76,SW,233,1.0,3.0,70,0.00,,,0.00,Wunderground v.1.15,2013-09-21 20:45:00,
2013-09-21 16:50:00,72.7,63.1,29.76,SW,226,1.0,1.0,72,0.00,,,0.00,Wunderground v.1.15,2013-09-21 20:50:00,
2013-09-21 16:55:00,72.7,63.1,29.76,SW,229,1.0,3.0,72,0.00,,,0.00,Wunderground v.1.15,2013-09-21 20:55:00,
2013-09-21 17:05:00,72.8,63.2,29.76,SE,144,1.0,3.0,72,0.00,,,0.00,Wunderground v.1.15,2013-09-21 21:05:00,
2013-09-21 17:10:00,72.8,62.4,29.76,NW,304,1.0,1.0,70,0.00,,,0.00,Wunderground v.1.15,2013-09-21 21:10:00,
2013-09-21 17:15:00,72.8,62.0,29.75,SW,236,1.0,5.0,69,0.00,,,0.00,Wunderground v.1.15,2013-09-21 21:15:00,
2013-09-21 17:20:00,72.7,61.1,29.75,SW,229,1.0,1.0,67,0.00,,,0.00,Wunderground v.1.15,2013-09-21 21:20:00,
2013-09-21 17:25:00,72.5,60.9,29.75,SW,224,1.0,3.0,67,0.00,,,0.00,Wunderground v.1.15,2013-09-21 21:25:00,
2013-09-21 17:30:00,72.5,60.5,29.75,SW,223,1.0,3.0,66,0.00,,,0.00,Wunderground v.1.15,2013-09-21 21:30:00,
2013-09-21 17:40:00,72.1,60.1,29.75,SW,226,1.0,3.0,66,0.00,,,0.00,Wunderground v.1.15,2013-09-21 21:40:00,
2013-09-21 17:45:00,72.0,60.0,29.75,SW,224,2.0,3.0,66,0.00,,,0.00,Wunderground v.1.15,2013-09-21 21:45:00,
2013-09-21 17:50:00,71.8,59.4,29.75,SW,232,1.0,3.0,65,0.00,,,0.00,Wunderground v.1.15,2013-09-21 21:50:00,
2013-09-21 17:55:00,71.8,59.8,29.75,SW,219,1.0,3.0,66,0.00,,,0.00,Wunderground v.1.15,2013-09-21 21:55:00,
2013-09-21 18:04:00,71.5,60.0,29.75,SW,219,0.0,3.0,67,0.00,,,0.00,Wunderground v.1.15,2013-09-21 22:04:00,
2013-09-21 18:10:00,71.3,60.2,29.75,SW,219,0.0,3.0,68,0.00,,,0.00,Wunderground v.1.15,2013-09-21 22:10:00,
2013-09-21 18:15:00,71.1,60.4,29.75,SW,219,0.0,3.0,69,0.00,,,0.00,Wunderground v.1.15,2013-09-21 22:15:00,
2013-09-21 18:20:00,70.9,60.2,29.75,SW,219,0.0,3.0,69,0.00,,,0.00,Wunderground v.1.15,2013-09-21 22:20:00,
2013-09-21 18:29:00,70.3,60.1,29.76,SW,226,0.0,3.0,70,0.00,,,0.00,Wunderground v.1.15,2013-09-21 22:29:00,
2013-09-21 18:34:00,70.1,60.3,29.76,SW,227,0.0,3.0,71,0.00,,,0.00,Wunderground v.1.15,2013-09-21 22:34:00,
2013-09-21 18:44:00,69.9,60.5,29.75,SW,229,0.0,6.0,72,0.00,,,0.00,Wunderground v.1.15,2013-09-21 22:44:00,
2013-09-21 18:49:00,69.9,60.8,29.75,SSW,206,0.0,3.0,73,0.00,,,0.00,Wunderground v.1.15,2013-09-21 22:49:00,
2013-09-21 18:54:00,69.8,60.8,29.75,WSW,244,1.0,3.0,73,0.00,,,0.00,Wunderground v.1.15,2013-09-21 22:54:00,
2013-09-21 18:59:00,69.8,61.1,29.75,SW,223,1.0,1.0,74,0.00,,,0.00,Wunderground v.1.15,2013-09-21 22:59:00,
2013-09-21 19:04:00,69.6,61.3,29.75,WSW,237,0.0,3.0,75,0.00,,,0.00,Wunderground v.1.15,2013-09-21 23:04:00,
2013-09-21 19:10:00,69.6,61.3,29.75,SW,219,0.0,3.0,75,0.00,,,0.00,Wunderground v.1.15,2013-09-21 23:10:00,
2013-09-21 19:19:00,69.6,61.7,29.75,SW,223,0.0,3.0,76,0.00,,,0.00,Wunderground v.1.15,2013-09-21 23:19:00,
2013-09-21 19:24:00,69.4,61.9,29.75,SW,222,0.0,3.0,77,0.00,,,0.00,Wunderground v.1.15,2013-09-21 23:24:00,
2013-09-21 19:30:00,69.4,61.9,29.75,SW,230,0.0,3.0,77,0.00,,,0.00,Wunderground v.1.15,2013-09-21 23:30:00,
2013-09-21 19:35:00,69.3,61.8,29.75,SW,219,1.0,3.0,77,0.00,,,0.00,Wunderground v.1.15,2013-09-21 23:35:00,
2013-09-21 19:40:00,69.1,61.6,29.75,SW,217,1.0,1.0,77,0.00,,,0.00,Wunderground v.1.15,2013-09-21 23:40:00,
2013-09-21 19:50:00,68.9,62.1,29.75,SW,226,1.0,1.0,79,0.00,,,0.00,Wunderground v.1.15,2013-09-21 23:50:00,
2013-09-21 19:55:00,68.9,62.5,29.75,SW,222,1.0,2.0,80,0.00,,,0.00,Wunderground v.1.15,2013-09-21 23:55:00,
2013-09-21 20:00:00,68.8,62.4,29.75,SW,222,0.0,3.0,80,0.00,,,0.00,Wunderground v.1.15,2013-09-22 00:00:00,
2013-09-21 20:05:00,68.8,62.4,29.75,SW,220,0.0,3.0,80,0.00,,,0.00,Wunderground v.1.15,2013-09-22 00:05:00,
2013-09-21 20:10:00,68.8,62.4,29.75,SW,219,0.0,3.0,80,0.00,,,0.00,Wunderground v.1.15,2013-09-22 00:10:00,
2013-09-21 20:15:00,68.6,62.5,29.74,SW,224,0.0,3.0,81,0.00,,,0.00,Wunderground v.1.15,2013-09-22 00:15:00,
2013-09-21 20:25:00,68.6,62.9,29.74,SW,220,0.0,3.0,82,0.00,,,0.00,Wunderground v.1.15,2013-09-22 00:25:00,
2013-09-21 20:30:00,68.6,62.9,29.74,SSW,199,0.0,3.0,82,0.00,,,0.00,Wunderground v.1.15,2013-09-22 00:30:00,
2013-09-21 20:35:00,68.4,63.0,29.74,South,181,0.0,3.0,83,0.00,,,0.00,Wunderground v.1.15,2013-09-22 00:35:00,
2013-09-21 20:44:00,68.4,63.4,29.74,SSE,162,0.0,3.0,84,0.00,,,0.00,Wunderground v.1.15,2013-09-22 00:44:00,
2013-09-21 20:49:00,68.4,63.4,29.74,SW,222,0.0,3.0,84,0.00,,,0.00,Wunderground v.1.15,2013-09-22 00:49:00,
2013-09-21 20:59:00,68.4,63.7,29.74,SSW,213,0.0,3.0,85,0.00,,,0.00,Wunderground v.1.15,2013-09-22 00:59:00,
2013-09-21 21:04:00,68.4,63.7,29.74,SW,220,0.0,3.0,85,0.00,,,0.00,Wunderground v.1.15,2013-09-22 01:04:00,
2013-09-21 21:09:00,68.4,63.7,29.74,SSE,158,0.0,3.0,85,0.00,,,0.00,Wunderground v.1.15,2013-09-22 01:09:00,
2013-09-21 21:14:00,68.6,64.2,29.73,SSW,209,0.0,3.0,86,0.00,,,0.00,Wunderground v.1.15,2013-09-22 01:14:00,
2013-09-21 21:20:00,68.6,63.9,29.73,South,171,1.0,3.0,85,0.00,,,0.00,Wunderground v.1.15,2013-09-22 01:20:00,
2013-09-21 21:29:00,68.6,63.9,29.73,SSW,202,0.0,3.0,85,0.00,,,0.00,Wunderground v.1.15,2013-09-22 01:29:00,
2013-09-21 21:34:00,68.6,63.9,29.73,SSW,213,0.0,3.0,85,0.00,,,0.00,Wunderground v.1.15,2013-09-22 01:34:00,
2013-09-21 21:40:00,68.4,63.7,29.73,SE,137,0.0,3.0,85,0.00,,,0.00,Wunderground v.1.15,2013-09-22 01:40:00,
2013-09-21 21:45:00,68.4,64.0,29.72,SW,219,1.0,3.0,86,0.00,,,0.00,Wunderground v.1.15,2013-09-22 01:45:00,
2013-09-21 21:50:00,68.4,64.0,29.72,WSW,243,1.0,1.0,86,0.00,,,0.00,Wunderground v.1.15,2013-09-22 01:50:00,
2013-09-21 21:55:00,68.3,63.9,29.72,NW,305,0.0,3.0,86,0.00,,,0.00,Wunderground v.1.15,2013-09-22 01:55:00,
2013-09-21 22:05:00,68.3,64.3,29.72,SW,226,0.0,3.0,87,0.00,,,0.00,Wunderground v.1.15,2013-09-22 02:05:00,
2013-09-21 22:10:00,68.3,64.3,29.72,SW,230,0.0,3.0,87,0.00,,,0.00,Wunderground v.1.15,2013-09-22 02:10:00,
2013-09-21 22:15:00,68.3,64.3,29.71,SSW,192,0.0,3.0,87,0.00,,,0.00,Wunderground v.1.15,2013-09-22 02:15:00,
2013-09-21 22:20:00,68.3,64.3,29.71,SW,224,0.0,3.0,87,0.00,,,0.00,Wunderground v.1.15,2013-09-22 02:20:00,
2013-09-21 22:25:00,68.1,64.4,29.71,SW,232,0.0,3.0,88,0.00,,,0.00,Wunderground v.1.15,2013-09-22 02:25:00,
2013-09-21 22:35:00,68.1,64.4,29.71,WSW,239,0.0,3.0,88,0.00,,,0.00,Wunderground v.1.15,2013-09-22 02:35:00,
2013-09-21 22:40:00,67.9,64.2,29.71,SSW,205,0.0,3.0,88,0.00,,,0.00,Wunderground v.1.15,2013-09-22 02:40:00,
2013-09-21 22:45:00,67.9,64.2,29.70,SW,217,0.0,3.0,88,0.00,,,0.00,Wunderground v.1.15,2013-09-22 02:45:00,
2013-09-21 22:50:00,67.8,64.1,29.70,WSW,257,0.0,3.0,88,0.00,,,0.00,Wunderground v.1.15,2013-09-22 02:50:00,
2013-09-21 22:59:00,67.6,64.2,29.69,SW,223,0.0,3.0,89,0.00,,,0.00,Wunderground v.1.15,2013-09-22 02:59:00,
2013-09-21 23:04:00,67.6,64.2,29.69,SW,220,0.0,3.0,89,0.00,,,0.00,Wunderground v.1.15,2013-09-22 03:04:00,
2013-09-21 23:09:00,67.4,64.4,29.69,SW,222,0.0,3.0,90,0.00,,,0.00,Wunderground v.1.15,2013-09-22 03:09:00,
2013-09-21 23:15:00,67.4,64.4,29.69,SW,232,0.0,3.0,90,0.00,,,0.00,Wunderground v.1.15,2013-09-22 03:15:00,
2013-09-21 23:20:00,67.4,64.4,29.69,West,260,0.0,3.0,90,0.00,,,0.00,Wunderground v.1.15,2013-09-22 03:20:00,
2013-09-21 23:25:00,67.4,64.4,29.69,SW,229,0.0,3.0,90,0.00,,,0.00,Wunderground v.1.15,2013-09-22 03:25:00,
2013-09-21 23:30:00,67.6,64.6,29.69,SW,229,0.0,3.0,90,0.00,,,0.00,Wunderground v.1.15,2013-09-22 03:30:00,
2013-09-21 23:35:00,67.6,64.6,29.69,SW,223,0.0,3.0,90,0.00,,,0.00,Wunderground v.1.15,2013-09-22 03:35:00,
2013-09-21 23:45:00,67.8,64.8,29.68,SE,144,0.0,3.0,90,0.00,,,0.00,Wunderground v.1.15,2013-09-22 03:45:00,
2013-09-21 23:50:00,67.8,64.8,29.68,SW,227,0.0,3.0,90,0.00,,,0.00,Wunderground v.1.15,2013-09-22 03:50:00,
2013-09-21 23:55:00,67.8,64.8,29.68,SW,227,0.0,3.0,90,0.00,,,0.00,Wunderground v.1.15,2013-09-22 03:55:00,